| time (UTC) | temp C | wind direction | speed KPH | gust KPH | rain 1hr cm | rain 24hr cm | rain mn cm | humidity % | barometer mb |
| 20260505024503 | 20 | 40 | 3.2 | 8.0 | 0.00 | 0.00 | 0.00 | 66 | 1030.2 |
| 20260505023603 | 20 | 78 | 3.2 | 9.7 | 0.00 | 0.00 | 0.00 | 65 | 1030.2 |
| 20260505022705 | 20 | 60 | 4.8 | 12.9 | 0.00 | 0.00 | 0.00 | 65 | 1030.2 |
| 20260505021803 | 20 | 68 | 4.8 | 12.9 | 0.00 | 0.00 | 0.00 | 64 | 1030.2 |
| 20260505020903 | 20 | 54 | 3.2 | 16.1 | 0.00 | 0.00 | 0.00 | 62 | 1030.3 |
| 20260505020004 | 20 | 61 | 3.2 | 6.4 | 0.00 | 0.00 | 0.00 | 64 | 1030.3 |
| 20260505015403 | 20 | 51 | 3.2 | 8.0 | 0.00 | 0.00 | 0.00 | 64 | 1030.4 |
| 20260505014503 | 20 | 62 | 3.2 | 8.0 | 0.00 | 0.00 | 0.00 | 62 | 1030.5 |
| 20260505013817 | 21 | 80 | 3.2 | 11.3 | 0.00 | 0.00 | 0.00 | 62 | 1030.5 |
| 20260505012703 | 20 | 107 | 1.6 | 9.7 | 0.00 | 0.00 | 0.00 | 62 | 1030.6 |
| 20260505012017 | 21 | 58 | 1.6 | 4.8 | 0.00 | 0.00 | 0.00 | 63 | 1030.8 |
| 20260505010903 | 20 | 46 | 1.6 | 8.0 | 0.00 | 0.00 | 0.00 | 63 | 1030.9 |
| 20260505010003 | 20 | 43 | 3.2 | 6.4 | 0.00 | 0.00 | 0.00 | 62 | 1031.0 |
| 20260505005403 | 20 | 50 | 3.2 | 8.0 | 0.00 | 0.00 | 0.00 | 63 | 1031.1 |
| 20260505004503 | 21 | 70 | 3.2 | 8.0 | 0.00 | 0.00 | 0.00 | 63 | 1031.2 |
| 20260505003603 | 20 | 77 | 3.2 | 9.7 | 0.00 | 0.00 | 0.00 | 63 | 1031.4 |
| 20260505002703 | 20 | 55 | 1.6 | 6.4 | 0.00 | 0.00 | 0.00 | 63 | 1031.5 |
| 20260505001803 | 20 | 43 | 3.2 | 6.4 | 0.00 | 0.00 | 0.00 | 63 | 1031.7 |
| 20260505001118 | 20 | 49 | 3.2 | 9.7 | 0.00 | 0.00 | 0.00 | 63 | 1031.8 |
| 20260505000003 | 20 | 58 | 3.2 | 6.4 | 0.00 | 0.00 | 0.00 | 64 | 1031.9 |
| 20260504235403 | 20 | 61 | 1.6 | 12.9 | 0.00 | 0.00 | 0.00 | 65 | 1031.9 |
| 20260504234717 | 19 | 20 | 1.6 | 8.0 | 0.00 | 0.00 | 0.00 | 65 | 1032.0 |
| 20260504233603 | 19 | 21 | 3.2 | 8.0 | 0.00 | 0.00 | 0.00 | 69 | 1032.2 |
| 20260504232703 | 18 | 37 | 0.0 | 8.0 | 0.00 | 0.00 | 0.00 | 67 | 1032.3 |
| 20260504231803 | 18 | 11 | 1.6 | 4.8 | 0.00 | 0.00 | 0.00 | 69 | 1032.3 |
| 20260504230903 | 18 | 12 | 1.6 | 4.8 | 0.00 | 0.00 | 0.00 | 68 | 1032.4 |
| 20260504230003 | 18 | 10 | 1.6 | 6.4 | 0.00 | 0.00 | 0.00 | 70 | 1032.6 |
| 20260504225403 | 17 | 360 | 1.6 | 4.8 | 0.00 | 0.00 | 0.00 | 74 | 1032.6 |
| 20260504224503 | 17 | 248 | 1.6 | 6.4 | 0.00 | 0.00 | 0.00 | 75 | 1032.8 |
| 20260504223603 | 17 | 205 | 1.6 | 4.8 | 0.00 | 0.00 | 0.00 | 77 | 1032.8 |
| 20260504222704 | 16 | 205 | 1.6 | 4.8 | 0.00 | 0.00 | 0.00 | 78 | 1032.7 |
| 20260504221804 | 16 | 190 | 0.0 | 3.2 | 0.00 | 0.00 | 0.00 | 78 | 1032.7 |
| 20260504220903 | 16 | 0 | 0.0 | 3.2 | 0.00 | 0.00 | 0.00 | 79 | 1032.6 |
| 20260504220003 | 16 | 0 | 0.0 | 3.2 | 0.00 | 0.00 | 0.00 | 81 | 1032.6 |
| 20260504215403 | 16 | 0 | 0.0 | 1.6 | 0.00 | 0.00 | 0.00 | 83 | 1032.6 |
| 20260504214503 | 15 | 0 | 0.0 | 3.2 | 0.00 | 0.00 | 0.00 | 84 | 1032.5 |
| 20260504213603 | 15 | 0 | 0.0 | 0.0 | 0.00 | 0.00 | 0.00 | 86 | 1032.6 |
| 20260504212703 | 14 | 0 | 0.0 | 1.6 | 0.00 | 0.00 | 0.00 | 88 | 1032.5 |
| 20260504211803 | 13 | 0 | 0.0 | 1.6 | 0.00 | 0.00 | 0.00 | 89 | 1032.6 |
| 20260504210903 | 13 | 0 | 0.0 | 1.6 | 0.00 | 0.00 | 0.00 | 90 | 1032.6 |
| 20260504210003 | 13 | 0 | 0.0 | 1.6 | 0.00 | 0.00 | 0.00 | 91 | 1032.7 |
| 20260504205403 | 12 | 0 | 0.0 | 0.0 | 0.00 | 0.00 | 0.00 | 91 | 1032.7 |
| 20260504204503 | 12 | 0 | 0.0 | 0.0 | 0.00 | 0.00 | 0.00 | 91 | 1032.8 |
| 20260504203603 | 12 | 0 | 0.0 | 0.0 | 0.00 | 0.00 | 0.00 | 91 | 1032.8 |
| 20260504202703 | 11 | 0 | 0.0 | 0.0 | 0.00 | 0.00 | 0.00 | 90 | 1032.7 |
| 20260504201803 | 11 | 0 | 0.0 | 0.0 | 0.00 | 0.00 | 0.00 | 90 | 1032.7 |
| 20260504200903 | 11 | 0 | 0.0 | 0.0 | 0.00 | 0.00 | 0.00 | 90 | 1032.7 |
| 20260504200003 | 11 | 0 | 0.0 | 0.0 | 0.00 | 0.00 | 0.00 | 89 | 1032.6 |
| 20260504195618 | 11 | 0 | 0.0 | 0.0 | 0.00 | 0.00 | 0.00 | 89 | 1032.6 |
| 20260504194503 | 11 | 0 | 0.0 | 0.0 | 0.00 | 0.00 | 0.00 | 89 | 1032.4 |
| 20260504193603 | 11 | 0 | 0.0 | 0.0 | 0.00 | 0.00 | 0.00 | 89 | 1032.4 |
| 20260504192918 | 11 | 0 | 0.0 | 0.0 | 0.00 | 0.00 | 0.00 | 89 | 1032.4 |
| 20260504191803 | 11 | 0 | 0.0 | 0.0 | 0.00 | 0.00 | 0.00 | 89 | 1032.4 |
| 20260504190903 | 11 | 0 | 0.0 | 0.0 | 0.00 | 0.00 | 0.00 | 89 | 1032.3 |
| 20260504190003 | 11 | 0 | 0.0 | 0.0 | 0.00 | 0.00 | 0.00 | 89 | 1032.3 |
| 20260504185403 | 11 | 0 | 0.0 | 0.0 | 0.00 | 0.00 | 0.00 | 89 | 1032.3 |
| 20260504184503 | 11 | 0 | 0.0 | 0.0 | 0.00 | 0.00 | 0.00 | 89 | 1032.2 |
| 20260504183603 | 11 | 0 | 0.0 | 0.0 | 0.00 | 0.00 | 0.00 | 89 | 1032.2 |
| 20260504182703 | 11 | 0 | 0.0 | 0.0 | 0.00 | 0.00 | 0.00 | 90 | 1032.2 |
| 20260504181803 | 11 | 0 | 0.0 | 0.0 | 0.00 | 0.00 | 0.00 | 90 | 1032.3 |
| 20260504181118 | 11 | 0 | 0.0 | 1.6 | 0.00 | 0.00 | 0.00 | 90 | 1032.3 |
| 20260504180003 | 11 | 0 | 0.0 | 0.0 | 0.00 | 0.00 | 0.00 | 89 | 1032.2 |
| 20260504175617 | 11 | 0 | 0.0 | 0.0 | 0.00 | 0.00 | 0.00 | 89 | 1032.2 |
| 20260504174718 | 11 | 0 | 0.0 | 0.0 | 0.00 | 0.00 | 0.00 | 89 | 1032.2 |
| 20260504173603 | 12 | 0 | 0.0 | 0.0 | 0.00 | 0.00 | 0.00 | 89 | 1032.2 |
| 20260504172917 | 12 | 0 | 0.0 | 0.0 | 0.00 | 0.00 | 0.00 | 89 | 1032.2 |
| 20260504171803 | 12 | 0 | 0.0 | 0.0 | 0.00 | 0.00 | 0.00 | 89 | 1032.2 |
| 20260504171118 | 12 | 0 | 0.0 | 0.0 | 0.00 | 0.00 | 0.00 | 89 | 1032.2 |
| 20260504150903 | 12 | 0 | 0.0 | 1.6 | 0.00 | 0.00 | 0.00 | 89 | 1032.7 |
| 20260504150218 | 12 | 0 | 0.0 | 1.6 | 0.00 | 0.00 | 0.00 | 89 | 1032.8 |
| 20260504140903 | 12 | 0 | 0.0 | 0.0 | 0.00 | 0.00 | 0.00 | 88 | 1033.4 |
| 20260504081803 | 12 | 0 | 0.0 | 0.0 | 0.00 | 0.00 | 0.00 | 83 | 1033.6 |
| 20260504080903 | 12 | 0 | 0.0 | 0.0 | 0.00 | 0.00 | 0.00 | 83 | 1033.6 |
| 20260504070217 | 12 | 0 | 0.0 | 4.8 | 0.00 | 0.00 | 0.00 | 79 | 1033.1 |
| 20260504050003 | 17 | 32 | 3.2 | 6.4 | 0.00 | 0.00 | 0.00 | 63 | 1032.3 |
| 20260504045403 | 17 | 35 | 4.8 | 9.7 | 0.00 | 0.00 | 0.00 | 63 | 1032.3 |
| 20260504044504 | 18 | 39 | 4.8 | 9.7 | 0.00 | 0.00 | 0.00 | 62 | 1032.2 |
| 20260504043603 | 18 | 36 | 3.2 | 9.7 | 0.00 | 0.00 | 0.00 | 61 | 1032.2 |
| 20260504042703 | 18 | 30 | 4.8 | 8.0 | 0.00 | 0.00 | 0.00 | 60 | 1032.1 |
| 20260504041803 | 19 | 38 | 3.2 | 9.7 | 0.00 | 0.00 | 0.00 | 60 | 1032.1 |
| 20260504040903 | 19 | 34 | 4.8 | 12.9 | 0.00 | 0.00 | 0.00 | 59 | 1032.1 |
| 20260504040003 | 19 | 37 | 4.8 | 12.9 | 0.00 | 0.00 | 0.00 | 58 | 1032.1 |
| 20260504035403 | 19 | 32 | 4.8 | 12.9 | 0.00 | 0.00 | 0.00 | 60 | 1032.0 |
| 20260504034503 | 19 | 41 | 4.8 | 16.1 | 0.00 | 0.00 | 0.00 | 58 | 1032.1 |
| 20260504033603 | 19 | 1 | 4.8 | 9.7 | 0.00 | 0.00 | 0.00 | 60 | 1032.1 |
| 20260504032703 | 19 | 3 | 3.2 | 9.7 | 0.00 | 0.00 | 0.00 | 57 | 1032.1 |
| 20260504031803 | 19 | 20 | 4.8 | 12.9 | 0.00 | 0.00 | 0.00 | 58 | 1032.2 |
| 20260504030903 | 18 | 356 | 4.8 | 11.3 | 0.00 | 0.00 | 0.00 | 59 | 1032.2 |
| 20260504030218 | 18 | 30 | 4.8 | 11.3 | 0.00 | 0.00 | 0.00 | 59 | 1032.1 |
| 20260504025403 | 19 | 360 | 3.2 | 11.3 | 0.00 | 0.00 | 0.00 | 60 | 1032.1 |